GW1766 Weather Reports


time (UTC)temp
F
wind
direction
speed
knots
gust
knots
rain 1hr
in
rain 24hr
in
rain mn
in
humidity
%
barometer
mb
20260504221050 70 360 2.6 7.0 0.00 0.00 0.00 30 1006.0
20260504220551 71 360 1.7 10.4 0.00 0.00 0.00 28 1006.0
20260504220059 71 360 0.9 10.4 0.00 0.00 0.00 30 1005.9
20260504215554 72 360 1.7 7.0 0.00 0.00 0.00 29 1005.8
20260504215053 72 360 1.7 5.2 0.00 0.00 0.00 30 1005.7
20260504214614 72 315 1.7 7.0 0.00 0.00 0.00 29 1005.7
20260504214053 72 36 2.6 7.0 0.00 0.00 0.00 27 1005.7
20260504213553 72 321 2.6 7.0 0.00 0.00 0.00 27 1005.6
20260504213119 73 360 1.7 7.0 0.00 0.00 0.00 28 1005.3
20260504212554 73 360 1.7 12.2 0.00 0.00 0.00 27 1005.3
20260504212056 73 360 2.6 12.2 0.00 0.00 0.00 27 1005.2
20260504211600 73 360 1.7 6.1 0.00 0.00 0.00 26 1005.2
20260504211053 73 38 1.7 7.8 0.00 0.00 0.00 29 1004.9
20260504210556 73 144 1.7 7.8 0.00 0.00 0.00 28 1004.8
20260504210059 73 360 1.7 7.0 0.00 0.00 0.00 28 1004.8
20260504205553 73 360 1.7 7.0 0.00 0.00 0.00 26 1004.7
20260504205056 74 360 1.7 7.8 0.00 0.00 0.00 27 1004.9
20260504204554 74 323 2.6 8.7 0.00 0.00 0.00 26 1004.6
20260504204053 74 270 1.7 8.7 0.00 0.00 0.00 27 1004.5
20260504203554 74 312 1.7 6.1 0.00 0.00 0.00 29 1004.5
20260504203103 73 360 1.7 7.0 0.00 0.00 0.00 29 1004.6
20260504202552 74 360 1.7 7.8 0.00 0.00 0.00 27 1004.4
20260504202054 74 360 1.7 7.8 0.00 0.00 0.00 29 1004.6
20260504201613 74 19 1.7 7.8 0.00 0.00 0.00 28 1004.4
20260504201054 75 360 1.7 7.8 0.00 0.00 0.00 28 1004.4
20260504200553 75 321 1.7 5.2 0.00 0.00 0.00 27 1004.2
20260504200056 75 360 1.7 6.1 0.00 0.00 0.00 29 1004.3
20260504195554 75 283 1.7 6.1 0.00 0.00 0.00 29 1004.3
20260504195054 75 17 1.7 5.2 0.00 0.00 0.00 28 1004.4
20260504194600 75 360 1.7 6.1 0.00 0.00 0.00 29 1004.4
20260504194054 75 81 1.7 7.0 0.00 0.00 0.00 30 1004.3
20260504193553 75 90 0.9 7.0 0.00 0.00 0.00 28 1004.4
20260504193109 75 360 1.7 7.0 0.00 0.00 0.00 27 1004.4
20260504192553 75 360 1.7 7.8 0.00 0.00 0.00 31 1004.3
20260504192059 75 19 0.9 8.7 0.00 0.00 0.00 28 1004.3
20260504191601 75 360 2.6 8.7 0.00 0.00 0.00 28 1004.3
20260504191054 75 360 1.7 7.0 0.00 0.00 0.00 28 1004.2
20260504190553 75 360 1.7 6.1 0.00 0.00 0.00 27 1004.2
20260504190115 75 360 1.7 7.8 0.00 0.00 0.00 28 1004.2
20260504185558 75 360 1.7 7.8 0.00 0.00 0.00 28 1004.3
20260504185053 76 360 1.7 7.0 0.00 0.00 0.00 27 1004.2
20260504184622 76 360 1.7 7.0 0.00 0.00 0.00 29 1003.9
20260504184054 76 19 1.7 5.2 0.00 0.00 0.00 30 1004.1
20260504183554 76 344 1.7 5.2 0.00 0.00 0.00 31 1004.1
20260504183054 76 211 1.7 7.0 0.00 0.00 0.00 31 1004.0
20260504182553 76 15 0.9 7.0 0.00 0.00 0.00 32 1003.9
20260504182053 76 130 1.7 7.0 0.00 0.00 0.00 31 1003.8
20260504181559 76 360 0.9 7.0 0.00 0.00 0.00 31 1003.7
20260504181053 76 360 0.9 7.0 0.00 0.00 0.00 33 1003.7
20260504180553 76 330 1.7 5.2 0.00 0.00 0.00 33 1003.7
20260504175553 75 291 1.7 4.3 0.00 0.00 0.00 34 1003.6
20260504175054 75 340 1.7 4.3 0.00 0.00 0.00 36 1003.6
20260504174558 75 360 1.7 4.3 0.00 0.00 0.00 36 1003.5
20260504174053 74 360 1.7 5.2 0.00 0.00 0.00 38 1003.6
20260504173553 74 360 0.9 5.2 0.00 0.00 0.00 40 1003.6
20260504173109 73 360 1.7 5.2 0.00 0.00 0.00 41 1003.5
20260504172553 73 342 1.7 5.2 0.00 0.00 0.00 40 1003.5
20260504172053 73 80 1.7 4.3 0.00 0.00 0.00 39 1003.5
20260504171608 73 306 1.7 4.3 0.00 0.00 0.00 41 1003.5
20260504171053 73 360 1.7 4.3 0.00 0.00 0.00 39 1003.5
20260504170553 73 360 1.7 4.3 0.00 0.00 0.00 41 1003.5
20260504160104 73 360 1.7 6.1 0.00 0.00 0.00 36 1002.7
20260504151053 70 360 1.7 7.0 0.00 0.00 0.00 39 1002.6
20260504150553 70 0 0.9 7.0 0.00 0.00 0.00 42 1002.6
20260504141055 64 360 0.9 6.1 0.00 0.00 0.00 48 1002.6
20260504140552 63 244 1.7 5.2 0.00 0.00 0.00 45 1002.6
20260504140110 62 360 0.9 3.5 0.00 0.00 0.00 48 1002.7
20260504130554 56 360 0.9 4.3 0.00 0.00 0.00 58 1003.2
20260504120109 53 360 0.9 2.6 0.00 0.00 0.00 60 1003.0
20260504110554 55 0 0.0 2.6 0.00 0.00 0.00 55 1003.0
20260504110107 55 261 0.0 2.6 0.00 0.00 0.00 55 1003.1
20260504100552 57 0 0.0 1.7 0.00 0.00 0.00 51 1003.3
20260504081600 57 0 0.9 1.7 0.00 0.00 0.00 48 1004.4
20260504081049 57 0 0.0 1.7 0.00 0.00 0.00 48 1004.5
20260504080549 57 0 0.0 0.0 0.00 0.00 0.00 48 1004.4
20260504060106 58 0 0.0 0.9 0.00 0.00 0.00 44 1006.5
20260504050550 60 0 0.0 0.9 0.00 0.00 0.00 41 1007.2
20260504045553 60 0 0.0 0.9 0.00 0.00 0.00 40 1007.2
20260504045054 60 0 0.0 0.0 0.00 0.00 0.00 40 1007.2
20260504044554 60 0 0.0 0.0 0.00 0.00 0.00 40 1007.3
20260504044051 60 0 0.0 0.0 0.00 0.00 0.00 39 1007.3
20260504043551 61 0 0.0 1.7 0.00 0.00 0.00 39 1007.4
20260504043053 61 0 0.0 1.7 0.00 0.00 0.00 39 1007.4
20260504042550 61 0 0.0 0.9 0.00 0.00 0.00 39 1007.5
20260504042050 61 0 0.0 0.0 0.00 0.00 0.00 38 1007.6
20260504041556 61 0 0.0 0.0 0.00 0.00 0.00 38 1007.6
20260504041050 61 0 0.0 0.0 0.00 0.00 0.00 38 1007.7
20260504040555 61 0 0.0 0.0 0.00 0.00 0.00 38 1007.7
20260504040058 61 0 0.0 0.9 0.00 0.00 0.00 38 1007.7
20260504035550 61 0 0.0 0.9 0.00 0.00 0.00 38 1007.7
20260504035050 61 0 0.0 0.0 0.00 0.00 0.00 38 1007.8
20260504034552 61 0 0.0 0.0 0.00 0.00 0.00 38 1007.8
20260504034054 61 0 0.0 0.0 0.00 0.00 0.00 38 1008.0
20260504033551 61 0 0.0 0.0 0.00 0.00 0.00 38 1008.1
20260504033101 61 0 0.0 0.0 0.00 0.00 0.00 38 1008.1
20260504032551 61 0 0.0 0.0 0.00 0.00 0.00 37 1008.1
20260504032052 61 0 0.0 0.0 0.00 0.00 0.00 37 1008.1
20260504031601 61 0 0.0 0.0 0.00 0.00 0.00 38 1008.2
20260504031052 61 0 0.0 0.0 0.00 0.00 0.00 38 1008.2
20260504030552 61 0 0.0 0.0 0.00 0.00 0.00 38 1008.4
20260504030052 62 0 0.0 0.0 0.00 0.00 0.00 38 1008.5
20260504025551 62 0 0.0 0.0 0.00 0.00 0.00 38 1008.5
20260504025050 62 0 0.0 0.9 0.00 0.00 0.00 37 1008.5
20260504024601 63 0 0.0 0.9 0.00 0.00 0.00 38 1008.5
20260504024050 64 0 0.0 0.9 0.00 0.00 0.00 39 1008.4
20260504023554 64 0 0.0 0.0 0.00 0.00 0.00 36 1008.5
20260504023054 64 0 0.0 0.0 0.00 0.00 0.00 34 1008.5
20260504022550 65 0 0.0 0.0 0.00 0.00 0.00 34 1008.5
20260504022050 65 0 0.0 0.0 0.00 0.00 0.00 34 1008.5
20260504021555 65 0 0.0 0.0 0.00 0.00 0.00 34 1008.5
20260504021052 65 0 0.0 0.0 0.00 0.00 0.00 34 1008.6
20260504020549 65 0 0.0 0.0 0.00 0.00 0.00 34 1008.6
20260504020052 65 0 0.0 0.0 0.00 0.00 0.00 34 1008.6
20260504015551 65 0 0.0 0.0 0.00 0.00 0.00 34 1008.7
20260504015051 65 0 0.0 0.0 0.00 0.00 0.00 34 1008.7
20260504014554 65 0 0.0 0.0 0.00 0.00 0.00 34 1008.7
20260504014051 66 0 0.0 0.0 0.00 0.00 0.00 34 1008.7
20260504013550 66 0 0.0 0.0 0.00 0.00 0.00 33 1008.8
20260504013104 67 0 0.0 0.0 0.00 0.00 0.00 35 1008.8
20260504012550 67 0 0.0 0.0 0.00 0.00 0.00 34 1008.8
20260504012053 67 0 0.0 0.0 0.00 0.00 0.00 33 1008.8
20260504011552 68 0 0.0 0.0 0.00 0.00 0.00 34 1008.8
20260504011052 68 0 0.0 0.0 0.00 0.00 0.00 33 1008.8
20260504010549 68 0 0.0 0.0 0.00 0.00 0.00 33 1008.9
20260504010055 68 0 0.0 0.0 0.00 0.00 0.00 32 1009.0
20260504005551 69 0 0.0 0.0 0.00 0.00 0.00 32 1009.0
20260504005051 69 0 0.0 0.9 0.00 0.00 0.00 32 1009.0
20260504004603 69 0 0.0 0.9 0.00 0.00 0.00 32 1009.1
20260504004050 70 0 0.0 1.7 0.00 0.00 0.00 31 1009.1
20260504003552 70 0 0.0 2.6 0.00 0.00 0.00 31 1009.1
20260504003054 70 0 0.0 2.6 0.00 0.00 0.00 32 1009.2
20260504002552 70 333 0.0 2.6 0.00 0.00 0.00 33 1009.1
20260504002054 71 0 0.0 1.7 0.00 0.00 0.00 31 1009.2
20260504001601 71 0 0.0 1.7 0.00 0.00 0.00 29 1009.3
20260504001053 71 0 0.0 1.7 0.00 0.00 0.00 30 1009.3
20260504000553 71 230 0.0 2.6 0.00 0.00 0.00 30 1009.2
20260503235550 72 331 0.9 2.6 0.00 0.00 0.00 30 1009.3
20260503235053 72 25 0.0 1.7 0.00 0.00 0.00 31 1009.2
20260503234558 73 47 0.9 2.6 0.00 0.00 0.00 30 1009.1
20260503234051 73 258 0.0 2.6 0.00 0.00 0.00 30 1009.3
20260503233551 74 360 0.9 2.6 0.00 0.00 0.00 29 1009.2
20260503233058 74 0 0.9 3.5 0.00 0.00 0.00 27 1009.3
20260503232550 74 265 0.0 3.5 0.00 0.00 0.00 29 1009.2
20260503232056 74 311 0.9 4.3 0.00 0.00 0.00 28 1009.3
20260503231559 74 330 0.9 4.3 0.00 0.00 0.00 28 1009.2
20260503231057 74 11 0.9 4.3 0.00 0.00 0.00 28 1009.4
20260503230556 75 0 0.9 3.5 0.00 0.00 0.00 28 1009.4
20260503230056 75 0 0.0 2.6 0.00 0.00 0.00 28 1009.4
20260503225554 74 165 0.0 2.6 0.00 0.00 0.00 28 1009.4
20260503225054 74 292 0.0 2.6 0.00 0.00 0.00 28 1009.4
20260503224556 74 360 0.9 3.5 0.00 0.00 0.00 29 1009.4
20260503224051 74 360 0.9 4.3 0.00 0.00 0.00 29 1009.5
20260503223551 74 360 0.0 4.3 0.00 0.00 0.00 29 1009.5
20260503223059 74 360 0.9 2.6 0.00 0.00 0.00 30 1009.5
20260503222550 74 0 0.9 2.6 0.00 0.00 0.00 28 1009.6
20260503222053 74 0 0.0 3.5 0.00 0.00 0.00 30 1009.6
20260503221558 75 327 0.9 3.5 0.00 0.00 0.00 27 1009.6